Theta_e
299 293 288 289 290 291 288 286 285 288 292 291 289 290 292 295 295 294 295 295 296 297 301 302 304 303 303 323 333 336 338 339 340 341 339 338 338 337 337 339 340 341 342 342
292 291 296 296 293 291 289 287 286 289 294 290 290 289 292 294 295 295 296 296 297 297 299 302 304 302 304 320 331 333 337 336 340 340 340 338 335 334 335 336 337 339 340 340
291 294 300 297 293 290 290 287 287 287 292 293 290 289 291 295 295 296 296 298 298 298 299 301 303 301 303 321 330 334 335 337 339 338 334 334 334 333 333 332 332 334 337 338
293 298 296 295 293 294 288 292 291 290 288 282 289 281 287 291 293 295 297 296 296 297 300 301 302 303 305 318 330 333 335 337 338 336 336 333 331 329 332 331 332 332 333 333
291 292 293 292 294 297 292 295 292 291 288 285 287 282 286 290 291 293 295 295 296 298 300 303 304 307 313 326 329 329 332 335 332 336 337 335 330 329 330 331 330 331 332 333
294 297 296 295 297 298 299 294 293 291 287 281 286 284 283 287 291 293 297 297 299 310 316 320 327 330 331 331 331 329 331 329 332 333 331 330 329 328 328 328 328 327 329 330
292 293 296 298 292 295 297 290 283 282 280 280 286 284 288 291 295 296 298 302 308 313 317 323 327 328 330 331 333 331 330 331 331 329 329 329 327 327 327 326 326 326 326 326
288 285 294 297 294 290 291 293 282 279 278 280 288 283 288 296 303 303 304 307 315 316 318 320 325 329 332 334 335 334 332 331 331 328 327 327 328 328 328 327 327 327 327 327
289 288 298 299 299 297 291 289 293 285 287 279 283 287 295 302 302 304 309 313 313 315 316 319 324 326 328 329 332 335 332 330 331 329 329 328 328 329 329 328 327 327 329 330
296 287 297 297 298 299 294 297 288 288 278 277 283 286 285 296 298 302 307 311 312 311 314 316 318 319 321 323 326 327 328 329 329 329 328 327 328 328 326 325 323 324 323 326
297 293 291 296 292 290 291 292 290 289 284 279 280 285 296 296 299 300 303 307 308 308 311 312 313 315 316 317 318 318 319 320 319 320 321 322 322 323 323 323 322 322 323 323
300 295 287 290 297 299 295 293 291 281 281 283 285 289 302 299 302 305 308 307 307 305 306 308 309 311 312 312 312 313 314 313 313 313 312 311 313 313 313 313 313 313 312 314
300 291 285 288 293 294 292 293 294 292 288 284 282 287 303 302 302 306 306 308 307 307 305 305 306 305 306 306 306 305 305 305 305 306 305 306 307 307 307 308 308 309 309 309
302 292 286 283 287 293 291 293 292 291 286 285 286 293 298 301 301 305 307 306 306 306 306 305 304 303 304 304 304 304 303 304 304 304 303 303 303 303 304 304 305 305 306 306
299 289 292 293 296 296 295 294 293 289 289 285 290 294 298 301 302 305 308 307 305 305 304 303 303 303 303 303 304 303 303 303 303 303 302 301 302 303 303 303 303 304 304 305
298 290 293 290 295 296 294 294 296 294 294 295 295 294 302 304 305 306 308 306 304 303 303 303 304 304 304 304 304 304 303 303 303 302 301 302 302 302 302 302 302 302 301 301
294 290 290 287 293 293 289 292 295 297 299 299 293 297 303 302 304 305 307 307 304 304 304 304 303 303 303 304 305 303 303 303 302 302 302 302 302 301 300 300 299 298 298 298
293 291 288 288 291 282 292 299 300 299 299 301 300 302 304 304 306 308 308 307 306 305 305 304 303 303 303 304 304 303 302 302 301 300 301 301 300 299 298 297 296 296 295 295
297 291 285 284 285 290 294 297 298 296 294 300 300 301 301 302 302 298 309 310 308 307 306 303 303 302 302 302 300 299 298 299 298 296 297 297 297 295 294 293 292 293 292 292
297 295 288 286 283 282 292 300 304 302 289 301 300 299 299 302 293 294 302 303 302 301 301 298 297 297 297 296 297 296 295 295 294 294 294 293 293 293 292 291 290 291 290 290
287 287 286 284 285 290 298 301 304 289 289 301 300 301 302 298 300 298 298 296 296 295 294 295 295 293 293 294 294 292 292 291 293 293 293 292 291 290 291 290 289 288 288 288
286 284 285 284 285 284 298 299 293 295 299 299 299 300 299 298 295 293 294 293 293 292 292 292 291 290 291 292 292 290 289 290 291 290 290 289 288 288 289 287 287 287 287 287
288 288 288 288 289 295 295 294 298 300 297 296 296 298 296 293 292 292 291 291 291 291 291 291 290 289 289 290 290 288 288 289 288 287 286 286 286 286 287 286 286 286 288 289
292 295 292 292 291 289 293 293 293 294 296 299 299 297 295 291 291 291 290 289 289 289 289 289 289 288 287 288 288 287 288 287 286 284 284 285 285 287 288 287 288 289 289 290
290 294 293 289 292 293 291 292 292 292 292 292 292 292 292 291 290 290 288 287 287 286 287 287 286 286 286 287 287 287 286 286 284 284 285 286 287 288 288 289 290 290 291 291
291 292 292 290 296 291 288 291 292 290 289 290 290 289 289 289 287 287 285 286 286 285 285 284 284 285 285 284 284 285 285 284 284 285 286 288 288 288 289 289 290 291 291 291
Wind_Speed
6 6 13 6 6 3 1 3 2 2 6 7 9 15 8 11 7 9 9 10 10 10 12 9 7 9 9 8 9 10 12 12 11 8 9 7 9 6 3 4 6 7 7 8
4 17 9 12 11 10 8 12 7 5 10 5 6 9 9 9 9 9 11 11 11 8 9 10 5 8 10 12 10 10 12 13 13 10 7 3 4 2 2 3 4 7 8 8
14 5 20 15 9 12 13 15 7 4 6 7 3 9 6 8 7 6 10 13 9 11 12 10 9 10 9 10 14 14 15 14 11 9 7 4 5 3 2 2 2 3 4 4
11 13 5 12 16 13 14 9 6 8 7 5 3 8 7 6 10 7 11 10 11 11 8 8 8 5 9 9 7 9 10 12 10 11 10 8 4 4 2 1 2 4 5 4
8 9 15 17 11 14 9 10 11 10 7 5 6 2 7 3 9 11 10 9 10 10 11 10 4 3 6 7 7 7 8 8 6 8 7 7 4 3 1 2 5 3 2 2
8 5 8 14 19 11 10 4 3 2 3 4 9 7 5 5 8 6 6 6 6 7 5 6 6 8 7 6 7 8 10 6 7 6 7 5 5 4 3 3 3 1 1 3
4 9 4 6 9 10 10 8 3 1 2 10 9 4 14 9 6 6 5 6 6 5 5 8 11 11 11 11 10 8 10 9 8 8 7 7 6 5 4 3 3 4 3 3
11 10 13 8 10 8 14 12 6 8 5 4 4 9 10 7 8 6 4 8 9 9 7 6 11 11 11 10 10 11 12 11 9 8 8 5 5 3 3 2 2 3 3 2
6 9 5 14 10 13 6 13 7 2 3 2 6 6 5 3 8 6 5 11 9 8 7 9 9 9 9 8 7 9 10 10 10 8 6 6 4 3 1 2 2 3 3 2
5 5 6 7 7 6 8 10 5 2 5 4 4 5 7 4 7 6 5 10 9 6 9 10 10 10 10 12 11 13 12 12 10 10 9 7 7 6 6 6 5 6 5 6
15 1 3 8 7 11 4 9 4 8 4 6 4 4 2 0 1 3 5 5 6 7 9 9 10 10 10 13 13 13 13 14 12 10 10 11 8 7 9 9 8 8 7 6
15 4 5 5 3 5 9 14 9 6 4 3 2 2 3 4 4 9 8 8 6 7 9 10 10 12 12 14 14 13 12 13 10 9 11 10 8 9 10 9 9 8 10 10
6 4 4 1 5 2 5 7 12 5 3 7 5 3 3 4 9 10 11 10 7 10 12 11 12 14 11 12 13 13 11 11 9 9 10 9 10 11 10 10 10 11 10 10
8 6 5 5 4 7 6 13 13 14 7 4 5 9 6 6 12 12 11 12 8 10 12 13 10 13 11 11 11 12 11 10 9 11 11 10 9 9 9 8 9 9 8 8
3 1 3 2 3 4 5 13 13 8 9 8 7 14 15 13 15 13 12 12 12 11 12 15 13 9 11 10 9 10 9 8 8 10 10 8 7 7 7 8 8 7 8 7
2 1 5 9 2 4 4 14 11 10 5 5 12 6 9 13 16 18 13 10 12 12 12 13 13 10 7 8 8 8 8 6 8 8 8 7 6 6 6 6 6 6 6 6
4 2 3 4 6 6 2 7 15 8 4 7 8 7 16 8 13 18 21 11 9 14 13 12 10 8 5 6 5 7 8 7 9 8 6 7 6 6 6 6 6 6 5 4
3 5 1 4 8 5 2 9 7 9 7 3 2 20 22 16 9 12 15 16 17 11 10 8 9 7 6 4 7 8 8 8 8 7 7 7 6 6 6 6 5 5 4 5
3 3 3 3 3 3 5 1 8 7 1 4 8 10 15 15 11 8 6 10 12 14 10 4 6 6 7 7 7 10 9 8 8 9 7 6 5 4 4 5 5 4 4 5
3 6 3 3 4 2 4 3 4 6 2 4 11 14 19 14 6 3 7 12 11 10 9 8 8 8 9 5 6 11 8 8 8 6 5 5 4 4 4 4 5 3 4 8
1 1 3 2 4 5 5 9 2 6 4 8 10 13 12 6 5 11 13 14 12 11 11 9 10 10 7 6 8 9 7 8 5 5 6 6 6 7 4 5 4 6 7 7
2 3 2 3 4 4 12 2 5 4 4 11 10 11 15 16 14 17 13 13 12 12 11 10 11 10 7 6 6 7 8 5 7 6 6 6 6 5 6 5 5 5 5 5
5 2 4 4 2 6 8 7 6 12 15 10 13 13 18 15 11 15 12 12 10 10 8 7 9 9 6 6 5 6 3 4 4 4 5 5 5 5 5 5 5 4 4 4
3 4 4 3 8 6 10 14 14 13 13 13 12 15 17 16 13 13 11 10 8 7 7 5 6 6 5 4 5 4 2 3 5 5 5 5 6 7 6 4 3 3 4 4
1 2 6 7 3 9 13 13 11 16 15 18 16 14 13 16 11 11 8 7 6 6 5 4 5 4 3 2 2 2 3 3 4 5 4 5 4 5 5 4 4 4 4 4
3 4 3 4 2 6 5 9 9 18 14 11 15 13 11 11 10 9 6 4 5 5 4 4 4 3 1 2 3 3 2 2 3 4 4 4 4 4 4 3 4 6 7 9
Wind_Direction
195 174 210 164 184 249 327 241 245 283 238 203 230 258 242 262 228 240 234 235 240 239 257 263 252 183 194 189 172 168 163 169 161 175 179 179 195 186 196 186 179 183 182 188
118 230 191 176 195 208 226 246 240 274 270 180 270 268 245 246 250 207 233 238 239 236 254 259 236 175 189 183 184 169 176 170 179 178 184 178 148 136 149 157 178 190 187 193
208 223 185 194 195 205 223 230 234 218 303 281 274 285 258 260 247 243 233 237 230 217 243 252 257 182 179 188 184 181 180 175 173 159 124 93 85 74 120 180 186 191 177 162
234 227 192 210 212 197 228 179 177 205 191 225 163 276 265 251 265 264 261 232 223 215 231 250 255 163 188 199 169 165 161 165 167 160 163 159 151 147 199 178 96 110 116 126
216 182 209 229 221 216 235 174 194 209 213 167 246 242 260 311 278 270 264 231 217 213 216 237 256 147 194 164 143 125 130 146 146 163 168 157 141 100 113 86 94 96 107 201
217 213 199 218 216 214 220 263 81 83 129 210 206 173 272 217 227 271 242 222 193 176 173 108 111 126 128 120 127 133 138 104 108 112 89 100 118 104 111 83 93 64 251 236
255 226 201 186 205 210 203 175 256 311 246 236 147 164 241 268 257 252 262 130 101 83 113 132 138 131 134 137 141 106 106 105 100 98 103 103 95 93 117 130 196 208 222 216
212 237 200 192 190 173 203 179 168 188 195 225 102 221 244 260 285 329 53 107 80 64 57 80 116 122 117 108 113 121 124 121 110 104 96 98 112 120 116 179 203 233 219 217
216 233 242 193 173 159 190 184 168 322 192 145 202 239 317 9 25 40 108 94 82 76 73 79 82 93 92 86 83 100 103 99 99 102 107 101 117 123 120 261 287 307 324 308
249 243 201 188 149 186 158 139 135 239 172 209 242 206 226 357 346 10 54 107 96 88 89 80 81 77 84 85 81 79 80 87 91 93 95 95 91 87 83 71 63 53 28 20
197 243 260 127 180 173 136 175 140 131 200 168 174 243 272 64 355 22 34 41 70 90 93 84 81 77 78 84 81 81 80 82 77 81 87 89 78 78 77 70 56 43 33 28
182 163 211 180 136 139 183 165 201 136 207 229 152 220 76 113 98 103 71 72 72 64 65 75 78 80 76 82 82 81 83 86 79 80 78 69 65 61 60 57 54 49 49 41
146 148 144 186 318 332 162 167 186 133 101 195 144 243 123 97 91 84 74 82 81 93 76 69 72 72 68 75 85 81 71 66 60 66 66 63 64 66 65 59 51 45 42 40
158 172 192 180 196 154 158 187 176 183 187 223 211 146 188 134 108 102 90 85 85 85 94 75 63 80 76 67 74 80 77 76 73 69 66 62 59 66 67 62 55 48 43 43
159 256 238 316 199 131 155 190 181 167 179 164 184 161 175 165 132 109 109 108 103 101 98 111 97 82 90 83 84 84 82 83 92 89 84 75 72 66 58 54 52 52 48 37
43 343 215 226 168 109 199 208 189 199 169 181 164 165 187 148 132 112 99 111 119 110 115 109 107 94 105 123 109 110 104 91 90 83 87 90 77 69 66 62 56 51 42 33
277 184 230 190 149 80 289 188 181 205 142 164 161 190 150 154 164 137 131 152 146 141 134 124 123 140 122 112 124 103 89 80 74 78 74 70 67 68 50 45 45 39 24 3
255 177 235 170 122 193 285 169 151 145 102 46 128 156 163 164 120 133 134 147 151 146 129 154 137 113 91 80 86 83 73 74 76 67 60 57 55 54 39 33 22 4 353 345
209 106 169 144 118 132 73 63 147 148 256 38 135 126 121 120 96 40 147 161 150 141 143 152 97 94 102 90 84 89 82 87 83 73 67 57 52 47 26 10 350 330 325 313
30 219 232 126 114 123 24 64 76 106 204 157 148 141 139 146 122 171 132 123 112 98 106 110 90 90 91 70 90 85 74 78 76 76 74 59 35 11 343 334 319 294 303 304
251 282 71 79 92 77 43 336 319 116 235 142 145 144 142 116 100 112 93 76 78 88 93 87 77 79 67 62 70 79 78 67 50 33 22 8 360 343 317 313 313 312 313 307
140 114 15 60 51 85 1 268 190 187 84 105 99 111 100 98 93 90 88 90 92 93 88 77 82 69 48 49 85 77 62 28 23 3 340 333 326 314 313 301 302 311 310 310
26 21 102 59 52 0 336 66 71 102 99 88 86 92 102 96 93 95 93 87 83 89 84 80 93 88 64 57 70 86 51 13 337 326 323 317 317 331 337 328 325 324 317 316
49 356 78 92 359 17 35 56 54 64 83 94 92 102 99 98 92 89 95 97 96 88 90 91 102 101 92 67 69 82 21 356 343 329 342 351 357 349 341 323 307 306 324 326
294 16 88 80 108 83 43 44 73 72 71 78 71 74 92 109 96 108 99 87 88 82 74 83 93 90 87 52 20 18 15 352 342 358 353 349 323 325 322 320 310 317 320 327
343 139 101 129 107 96 49 34 57 82 76 71 92 77 62 92 102 109 112 122 125 119 107 92 100 115 93 348 333 347 355 354 7 6 344 333 332 331 318 324 352 23 19 76